Puerto Plata, Dominican Republic

4:20 PM AST on February 19, 2018 (GMT -0400)
Gregorio Luperon International

Weather History for MDPP - July, 2013

Change the Weather History Date:

Wednesday, July 31, 2013

  Actual Average Record
Temperature  
Mean Temperature 82 °F -  
Max Temperature 91 °F 88 °F 94 °F (2017)
Min Temperature 74 °F 75 °F 69 °F (2001)
Cooling Degree Days 18    
Growing Degree Days 32 (Base 50)    
Moisture  
Dew Point 77 °F    
Average Humidity 75    
Maximum Humidity 91    
Minimum Humidity 57    
Precipitation  
Precipitation 0.00 in - - ()
Sea Level Pressure  
Sea Level Pressure 30.01 in    
Wind  
Wind Speed 6 mph ()    
Max Wind Speed 20 mph    
Max Gust Speed -    
Visibility 7.1 miles    
Events      
Averages and records for this station are not official NWS values.
T = Trace of Precipitation, MM = Missing Value Source: Averaged Metar Reports

Daily Weather History Graph

Daily Weather History Graph

Search for Another Location

Airport or City:

Trip Planner

Search our weather history database for the weather conditions in past years. The results will help you decide how hot, cold, wet, or windy it might be!

Date:

Astronomy

Jul. 31, 2013 Rise Set
Actual Time 6:17 AM AST 7:19 PM AST
Civil Twilight 5:54 AM AST 7:42 PM AST
Nautical Twilight 5:26 AM AST 8:10 PM AST
Astronomical Twilight 4:58 AM AST 8:38 PM AST
Moon 1:10 AM AST (7/31) 2:30 PM AST (7/31)
Length of Visible Light 13h 48m
Length of Day
13h 01m
Waning Crescent, 32% of the Moon is Illuminated
Jul 31
Waning Crescent
Aug 6
New
Aug 14
First Quarter
Aug 20
Full
Aug 28
Last Quarter

Hourly Weather History & Observations

Time (AST) Temp. Heat Index Dew Point Humidity Pressure Visibility Wind Dir Wind Speed Gust Speed Precip Events Conditions
2:00 AM 78.8 °F - 75.2 °F 89% 30.01 in 6.2 mi Calm Calm - N/A   Partly Cloudy
5:00 AM 77.0 °F - 73.4 °F 89% 29.98 in 6.2 mi Calm Calm - N/A   Partly Cloudy
8:00 AM 82 °F - 76 °F 78% 30.04 in 10 mi Calm Calm - -   Scattered Clouds
8:00 AM 82.4 °F 90.9 °F 77.0 °F 84% 30.04 in 6.2 mi Calm Calm - N/A   Scattered Clouds
9:00 AM 84.2 °F 92.3 °F 75.2 °F 74% 30.04 in 6.2 mi Calm Calm - N/A   Mostly Cloudy
10:00 AM 86.0 °F 96.9 °F 77.0 °F 74% 30.04 in 6.2 mi ESE 9.2 mph - N/A   Mostly Cloudy
11:00 AM 90 °F - 77 °F 59% 30.05 in 10 mi East 11.2 mph - -   Scattered Clouds
11:00 AM 89.6 °F 102.2 °F 77.0 °F 66% 30.04 in 6.2 mi East 11.5 mph - N/A   Mostly Cloudy
12:00 PM 87.8 °F 99.7 °F 77.0 °F 70% 30.04 in 6.2 mi ESE 11.5 mph - N/A   Mostly Cloudy
1:00 PM 89.6 °F 102.2 °F 77.0 °F 66% 30.01 in 6.2 mi East 11.5 mph - N/A   Mostly Cloudy
2:00 PM 91 °F - 78 °F 57% 30.00 in 10 mi East 17.9 mph - -   Scattered Clouds
2:00 PM 91.4 °F 105.1 °F 77.0 °F 63% 29.98 in 6.2 mi East 17.3 mph - N/A   Mostly Cloudy
3:00 PM 89.6 °F 104.7 °F 78.8 °F 70% 29.98 in 6.2 mi ENE 17.3 mph - N/A   Mostly Cloudy
4:00 PM 87.8 °F 102.5 °F 78.8 °F 75% 29.98 in 6.2 mi East 11.5 mph - N/A   Mostly Cloudy
5:00 PM 87.8 °F 102.5 °F 78.8 °F 75% 29.95 in 6.2 mi East 13.8 mph - N/A   Scattered Clouds
6:00 PM 86.0 °F 96.9 °F 77.0 °F 74% 29.98 in 6.2 mi East 13.8 mph - N/A   Scattered Clouds
7:00 PM 84.2 °F 94.1 °F 77.0 °F 79% 29.98 in 6.2 mi East 19.6 mph - N/A   Scattered Clouds
8:00 PM 82 °F - 77 °F 79% 30.00 in 10 mi East 8.9 mph - -   Scattered Clouds
8:00 PM 82.4 °F 90.9 °F 77.0 °F 84% 29.98 in 6.2 mi East 9.2 mph - N/A   Scattered Clouds
11:00 PM 78 °F - 76 °F 91% 30.02 in 10 mi Calm Calm - -   Scattered Clouds
11:00 PM 78.8 °F - 75.2 °F 89% 30.01 in 6.2 mi Calm Calm - N/A   Partly Cloudy